Tracking 22438 objects as of 24-Feb-2021
HD Live streaming from Space Station
objects crossing your sky now

DELTA 1 DEB

Track DELTA 1 DEB now!
10-day predictions


NORAD ID: 21353
Int'l Code: 1975-052BX
Perigee: 1,101.0 km
Apogee: 1,922.8 km
Inclination: 99.6 °
Period: 116.1 minutes
Semi major axis: 7882 km
RCS: 0.0647 m2 (small)
Launch date: June 12, 1975
Source: United States (US)
Launch site: AIR FORCE WESTERN TEST RANGE (AFWTR)

Note: This is SATELLITE DEBRIS
aabbcc
Your satellite tracking list
Your tracking list is empty




NASA's NSSDC Master Catalog

Two Line Element Set (TLE):
1 21353U 75052BX  21054.61313156  .00000086  00000-0  54980-3 0  9994
2 21353  99.5547 299.7792 0521299 355.2440  63.9075 12.40432050347129
Source of the keplerian elements: AFSPC